Погода в Василевке

Украина / Днепропетровская область     48°42′41″N   35°33′28″E
темп.,
°C
ветер,
м/с
пор.,
м/с
влажн.,
%
обл.,
%
осадки,
мм/ч
давл.,
гПа
погр.,
м
11 апреля, вс
вс1100:00+7с35580 0.0 102673
03:00+5ссв46622 0.0 102697
06:00+4ссв496658 0.0 1027146
09:00+10св610468 0.0 1027759
12:00+13св793398 0.0 10261313
15:00+15св7930100 0.0 10251422
18:00+13св6938100 0.0 1024999
21:00+10ссв5114899 0.0 1024350
12 апреля, пн
пн1200:00+9ссв51155100 0.0 1024416
03:00+9ссв61161100 0.0 1023476
06:00+7св51076100 0.0 1022278
09:00+10св5882100 0.0 1021360
12:00+16всв5659100 0.0 1020890
15:00+20в5743100 0.0 10181638
18:00+17в3456100 0.0 101861
21:00+14юв4870100 0.0 1020428
13 апреля, вт
вт1300:00+12ююв3682100 0.0 1020329
03:00+10ююв248779 0.0 1021138
06:00+10ююв2387100 0.0 1021160
09:00+11ююв3379100 0.0 1021397
12:00+13юв456991 0.0 1021909
15:00+16ююв4454100 0.0 10201479
18:00+15вюв4564100 0.0 1020686
21:00+12юв377681 0.0 1020255
14 апреля, ср
ср1400:00+10ююв358052 0.0 1020148
03:00+8ююв22885 0.0 102036
06:00+7юв229384 0.0 101916
09:00+11ююв337299 0.0 1019413
12:00+15ююв3456100 0.0 10171094
15:00+11вюв4687100 1.1 1017260
18:00+12юв347812 0.7 1016359
21:00+10юв358734 0.7 101675
15 апреля, чт
чт1500:00+9ююв3388100 0.0 101645
03:00+8ююв22886 0.0 101628
06:00+7вюв229051 0.0 101617
09:00+12юв346972 0.0 1016455
12:00+15юв34495 0.0 10141188
15:00+17ю3446100 0.0 10131769
18:00+14зюз2363100 0.0 1013165
21:00+12ю4782100 0.1 1013344